Home > Weather > Málaga > Past weeks

Flag for Spain Past Weather in Málaga, Spain — Yesterday and Last 2 Weeks

Now
81 °F

Passing clouds.


Feels Like: 84 °F
Forecast: 68 / 99 °F
Wind: 7 mph from Southeast

Location: Malaga / Aeropuerto

Current Time: Aug 28, 2016 at 12:44:09 PM

Latest Report: Aug 28, 2016 at 12:00 PM


Visibility: N/A

Pressure: 30.12 "Hg

Humidity: 70%

Dew Point: 70 °F

Location of MálagaLocation

Past Weather in Málaga — Graph

°F

Málaga Temperature Yesterday

Maximum temperature yesterday: 81 °F (at 2:30 PM)
Minimum temperature yesterday: 72 °F (at 7:00 AM)
Average temperature yesterday: 76 °F

High & Low Weather Summary for the Past Weeks

 TemperatureHumidityPressure
High102 °F (Aug 20, 4:00 PM)89% (Aug 15, 7:00 AM)30.21 "Hg (Aug 15, 7:00 AM)
Low68 °F (Aug 17, 6:30 AM)19% (Aug 19, 1:00 PM)29.77 "Hg (Aug 18, 6:00 PM)
Average80 °F65%30.03 "Hg
* Reported Aug 13 11:00 AM — Aug 28 11:00 AM, Málaga, Weather by CustomWeather, © 2016

Note: Actual official high and low records may vary slightly from our data, if they occured in-between our weather recording intervals... More about our weather records

Advertising

Málaga Weather History for the Previous 24 Hours

Scroll right to see more
 ConditionsComfort  
Time TempWeatherWind HumidityBarometerVisibility
11:00 AM
Sun, Aug 28
81 °FSunny.No wind66%30.12 "Hg10 mi
10:30 AM77 °FSunny.1 mph69%30.12 "Hg10 mi
10:00 AM75 °FSunny.1 mph69%30.12 "Hg10 mi
9:30 AM73 °FSunny.2 mph74%30.09 "Hg10 mi
9:00 AM72 °FSunny.No wind78%30.09 "Hg10 mi
8:30 AM72 °FClear.1 mph78%30.09 "Hg10 mi
8:00 AM72 °FClear.1 mph78%30.09 "Hg10 mi
7:30 AM72 °FClear.1 mph78%30.07 "Hg10 mi
7:00 AM70 °FClear.6 mph83%30.07 "Hg10 mi
6:30 AM72 °FClear.5 mph78%30.07 "Hg10 mi
6:00 AM70 °FClear.5 mph83%30.07 "Hg10 mi
5:30 AM70 °FClear.3 mph83%30.07 "Hg10 mi
5:00 AM72 °FClear.3 mph78%30.07 "Hg10 mi
4:30 AM72 °FClear.6 mph83%30.07 "Hg10 mi
4:00 AM73 °FClear.2 mph78%30.09 "Hg10 mi
3:30 AM72 °FClear.3 mph78%30.09 "Hg10 mi
3:00 AM73 °FClear.5 mph78%30.09 "Hg10 mi
2:30 AM72 °FClear.1 mph88%30.09 "Hg10 mi
2:00 AM75 °FClear.No wind89%30.09 "Hg10 mi
1:30 AM75 °FClear.No wind89%30.12 "Hg10 mi
1:00 AM75 °FClear.1 mph83%30.12 "Hg10 mi
12:30 AM75 °FClear.1 mph89%30.12 "Hg10 mi
12:00 AM75 °FClear.2 mph89%30.12 "Hg10 mi
11:30 PM
Sat, Aug 27
75 °FClear.2 mph89%30.12 "Hg10 mi
11:00 PM75 °FClear.2 mph83%30.12 "Hg10 mi
10:30 PM75 °FClear.2 mph83%30.09 "Hg10 mi
10:00 PM75 °FClear.2 mph83%30.09 "Hg10 mi
9:30 PM77 °FSunny.2 mph79%30.09 "Hg10 mi
9:00 PM77 °FPassing clouds.3 mph83%30.09 "HgN/A
8:30 PM77 °FSunny.6 mph79%30.07 "Hg10 mi
8:00 PM77 °FPassing clouds.6 mph79%30.07 "HgN/A
7:30 PM77 °FPassing clouds.7 mph79%30.07 "HgN/A
7:00 PM79 °FSunny.9 mph74%30.07 "Hg10 mi
6:30 PM81 °FSunny.9 mph70%30.09 "Hg10 mi
6:00 PM79 °FPassing clouds.10 mph74%30.09 "HgN/A
5:30 PM79 °FPassing clouds.10 mph74%30.09 "HgN/A
5:00 PM79 °FPassing clouds.9 mph74%30.09 "HgN/A
4:30 PM81 °FPassing clouds.10 mph70%30.09 "HgN/A
4:00 PM81 °FPassing clouds.10 mph70%30.09 "HgN/A
3:30 PM81 °FPassing clouds.9 mph74%30.09 "HgN/A
3:00 PM81 °FPassing clouds.8 mph74%30.12 "HgN/A
2:30 PM81 °FPassing clouds.9 mph70%30.12 "HgN/A
2:00 PM79 °FPassing clouds.8 mph74%30.12 "HgN/A
1:30 PM79 °FScattered clouds.8 mph74%30.12 "HgN/A
1:00 PM79 °FScattered clouds.7 mph79%30.12 "HgN/A
12:30 PM79 °FPassing clouds.8 mph74%30.12 "HgN/A
12:00 PM79 °FPassing clouds.5 mph74%30.12 "HgN/A
Weather by CustomWeather, © 2016

See weather overviewHow to use our weather pages